Time,TemperatureF,DewpointF,PressureIn,WindDirection,WindDirectionDegrees,WindSpeedMPH,WindSpeedGustMPH,Humidity,HourlyPrecipIn,Conditions,Clouds,dailyrainin,SolarRadiationWatts/m^2,SoftwareType,DateUTC
2013-11-05 00:00:00,68.3,64.6,30.16,ENE,68,2.0,8.0,88,0.00,,---,0.00,0.00,VWS V14.01,2013-11-05 05:00:00,
2013-11-05 01:00:00,66.5,64.4,30.14,East,90,0.0,4.0,93,0.00,,---,0.00,0.00,VWS V14.01,2013-11-05 06:00:00,
2013-11-05 02:00:00,65.5,63.7,30.12,North,0,0.0,3.0,94,0.00,,---,0.00,0.00,VWS V14.01,2013-11-05 07:00:00,
2013-11-05 03:00:00,64.7,63.2,30.11,NNE,22,0.0,4.0,95,0.00,,---,0.00,0.00,VWS V14.01,2013-11-05 08:00:00,
2013-11-05 04:00:00,64.5,63.0,30.11,ENE,68,1.0,8.0,95,0.00,,---,0.00,0.00,VWS V14.01,2013-11-05 09:00:00,
2013-11-05 05:00:00,64.5,62.7,30.11,ENE,68,1.0,5.0,94,0.00,,---,0.00,0.00,VWS V14.01,2013-11-05 10:00:00,
2013-11-05 06:00:00,65.9,64.1,30.11,ENE,68,2.0,16.0,94,0.00,,---,0.00,0.00,VWS V14.01,2013-11-05 11:00:00,
2013-11-05 07:00:00,67.3,65.2,30.12,ENE,68,3.0,14.0,93,0.00,,---,0.00,8.00,VWS V14.01,2013-11-05 12:00:00,
2013-11-05 08:00:00,70.5,67.1,30.14,ENE,68,2.0,9.0,89,0.00,,---,0.00,82.00,VWS V14.01,2013-11-05 13:00:00,
2013-11-05 09:00:00,74.5,68.7,30.15,ENE,68,4.0,15.0,82,0.00,,---,0.00,187.00,VWS V14.01,2013-11-05 14:00:00,
2013-11-05 10:00:00,76.9,68.8,30.15,East,90,5.0,20.0,76,0.00,,---,0.00,333.00,VWS V14.01,2013-11-05 15:00:00,
2013-11-05 11:00:00,78.2,68.4,30.14,East,90,5.0,18.0,72,0.00,,---,0.00,286.00,VWS V14.01,2013-11-05 16:00:00,
2013-11-05 12:00:00,79.8,68.7,30.11,ENE,68,5.0,15.0,69,0.00,,---,0.00,286.00,VWS V14.01,2013-11-05 17:00:00,
2013-11-05 13:00:00,81.1,69.6,30.08,ENE,68,5.0,15.0,68,0.00,,---,0.00,414.00,VWS V14.01,2013-11-05 18:00:00,
2013-11-05 14:00:00,81.3,68.9,30.07,East,90,5.0,16.0,66,0.00,,---,0.00,503.00,VWS V14.01,2013-11-05 19:00:00,
2013-11-05 15:00:00,81.1,68.7,30.06,East,90,5.0,16.0,66,0.00,,---,0.00,255.00,VWS V14.01,2013-11-05 20:00:00,
2013-11-05 16:00:00,79.6,67.7,30.06,ENE,68,4.0,16.0,67,0.00,,---,0.00,115.00,VWS V14.01,2013-11-05 21:00:00,
2013-11-05 17:00:00,78.2,67.6,30.07,East,90,4.0,15.0,70,0.00,,---,0.00,25.00,VWS V14.01,2013-11-05 22:00:00,
2013-11-05 18:00:00,75.7,66.8,30.08,ENE,68,3.0,12.0,74,0.00,,---,0.00,2.00,VWS V14.01,2013-11-05 23:00:00,
2013-11-05 19:00:00,74.3,67.0,30.11,ENE,68,4.0,14.0,78,0.00,,---,0.00,0.00,VWS V14.01,2013-11-06 00:00:00,
2013-11-05 20:00:00,72.6,67.2,30.12,East,90,4.0,12.0,83,0.00,,---,0.00,0.00,VWS V14.01,2013-11-06 01:00:00,
2013-11-05 21:00:00,72.1,67.3,30.12,ENE,68,4.0,12.0,85,0.00,,---,0.00,0.00,VWS V14.01,2013-11-06 02:00:00,
2013-11-05 22:00:00,71.9,67.5,30.12,ENE,68,4.0,14.0,86,0.00,,---,0.00,0.00,VWS V14.01,2013-11-06 03:00:00,
2013-11-05 23:00:00,72.2,67.1,30.13,East,90,3.0,11.0,84,0.00,,---,0.00,0.00,VWS V14.01,2013-11-06 04:00:00,